Volver al catálogo

DELTA 1 DEB

ActivoPO
NORAD 21444·DEBRIS·🇺🇸 United States

Lanzado Jun 12, 1975 desde Vandenberg Space Force Base

Loading…

Próximos Pases (próximas 24 horas)

TLE

ActualizadoSource: Space-Track

Época: Sep 14, 2026, 00:22 UTC

1 21444U 75052EC  26257.01543492 -.00000264  00000-0 -68903-3 0  9997
2 21444  99.6877 159.6336 0263053 216.5572 277.8740 12.94953674668389

Sigue DELTA 1 DEB en tiempo real con AllMySat

Download on the App Store